Location: Kellogg
(38.0159°N, 90.0546°W)
Time: 08:20:48
(UTC+00:00)

Vanguard 1 Rocket - Pass Details

Date: 18 September 2024
Orbit: 650 x 4218 km, 34.3° (Epoch: 05 October)

Event Time Altitude Azimuth Distance (km) Brightness Sun altitude
Rises 13:49:16 0° 282° (WNW) 6,970 11.3 23.3°
Reaches altitude 10° 13:53:21 10° 280° (W) 6,310 11.2 24.1°
Maximum altitude 14:15:35 62° 207° (SSW) 4,503 11.3 28.2°
Drops below altitude 10° 14:39:53 10° 133° (SE) 6,771 13.2 32.5°
Sets 14:44:31 0° 130° (SE) 7,470 13.1 33.3°
